Weather History for 78988 - November, 2013

Change the Weather History Date:

Saturday, November 16, 2013

  Actual Average Record
Temperature  
Mean Temperature 84 °F -  
Max Temperature 88 °F 85 °F - ()
Min Temperature 79 °F 75 °F - ()
Cooling Degree Days 18    
Growing Degree Days 34 (Base 50)    
Moisture  
Dew Point 74 °F    
Average Humidity 74    
Maximum Humidity 84    
Minimum Humidity 59    
Precipitation  
Precipitation 0.00 in 0.13 in - ()
Sea Level Pressure  
Sea Level Pressure 29.86 in    
Wind  
Wind Speed 9 mph ()    
Max Wind Speed 13 mph    
Max Gust Speed -    
Visibility 6.7 miles    
Events      
T = Trace of Precipitation, MM = Missing Value Source: Averaged Metar Reports

Daily Weather History Graph

Daily Weather History Graph

Search for Another Location

Airport or City:

Trip Planner

Search our weather history database for the weather conditions in past years. The results will help you decide how hot, cold, wet, or windy it might be!

Date:

Astronomy

Nov. 16, 2013 Rise Set
Actual Time 6:33 AM AST 6:07 PM AST
Civil Twilight 6:11 AM AST 6:29 PM AST
Nautical Twilight 5:45 AM AST 6:55 PM AST
Astronomical Twilight 5:20 AM AST 7:21 PM AST
Moon 5:33 PM AST (11/16) 5:36 AM AST (11/16)
Length of Visible Light 12h 18m
Length of Day
11h 33m
Waxing Gibbous, 99% of the Moon is Illuminated
Nov 16
Waxing Gibbous
Nov 17
Full
Nov 25
Last Quarter
Dec 2
New
Dec 9
First Quarter

Hourly Weather History & Observations

Time (AST) Temp. Heat Index Dew Point Humidity Pressure Visibility Wind Dir Wind Speed Gust Speed Precip Events Conditions
12:00 AM 80.6 °F 85.4 °F 73.4 °F 79% 29.86 in 6.2 mi ESE 8.1 mph - N/A   Partly Cloudy
1:00 AM 80.6 °F 85.4 °F 73.4 °F 79% 29.86 in 6.2 mi ESE 11.5 mph - N/A   Partly Cloudy
2:00 AM 81 °F - 74 °F 75% 29.86 in 22 mi ESE 10.4 mph - -   Partly Cloudy
2:00 AM 80.6 °F 86.2 °F 75.2 °F 84% 29.86 in 6.2 mi ESE 10.4 mph - N/A   Scattered Clouds
3:00 AM 80.6 °F 86.2 °F 75.2 °F 84% 29.83 in 6.2 mi East 10.4 mph - N/A   Scattered Clouds
4:00 AM 80.6 °F 86.2 °F 75.2 °F 84% 29.83 in 6.2 mi ESE 10.4 mph - N/A   Partly Cloudy
5:00 AM 81 °F - 75 °F 76% 29.86 in 22 mi ESE 6.9 mph - -   Scattered Clouds
5:00 AM 80.6 °F 86.2 °F 75.2 °F 84% 29.86 in 6.2 mi ESE 11.5 mph - N/A   Partly Cloudy
6:00 AM 80.6 °F 86.2 °F 75.2 °F 84% 29.86 in 6.2 mi ESE 8.1 mph - N/A   Scattered Clouds
7:00 AM 80.6 °F 86.2 °F 75.2 °F 84% 29.86 in 6.2 mi East 10.4 mph - N/A   Scattered Clouds
8:00 AM 83 °F - 75 °F 71% 29.90 in 22 mi ESE 12.7 mph - -   Partly Cloudy
8:00 AM 82.4 °F 89.5 °F 75.2 °F 79% 29.89 in 6.2 mi ESE 12.7 mph - N/A   Partly Cloudy
9:00 AM 84.2 °F 92.3 °F 75.2 °F 74% 29.92 in 6.2 mi East 11.5 mph - N/A   Scattered Clouds
10:00 AM 86.0 °F 95.1 °F 75.2 °F 70% 29.92 in 6.2 mi East 11.5 mph - N/A   Scattered Clouds
11:00 AM 87 °F - 75 °F 59% 29.92 in 22 mi East 11.5 mph - -   Partly Cloudy
11:00 AM 87.8 °F 97.6 °F 75.2 °F 66% 29.92 in 6.2 mi East 11.5 mph - N/A   Scattered Clouds
12:00 PM 87.8 °F 97.6 °F 75.2 °F 66% 29.89 in 6.2 mi East 11.5 mph - N/A   Scattered Clouds
1:00 PM 87.8 °F 97.6 °F 75.2 °F 66% 29.86 in 6.2 mi East 11.5 mph - N/A   Scattered Clouds
2:00 PM 87.8 °F 95.6 °F 73.4 °F 62% 29.83 in 6.2 mi East 12.7 mph - N/A   Scattered Clouds
3:00 PM 87.8 °F 95.6 °F 73.4 °F 62% 29.83 in 6.2 mi East 10.4 mph - N/A   Scattered Clouds
4:00 PM 86.0 °F 93.4 °F 73.4 °F 66% 29.80 in 6.2 mi East 10.4 mph - N/A   Scattered Clouds
5:00 PM 85 °F - 74 °F 64% 29.82 in 22 mi ESE 8.1 mph - -   Scattered Clouds
5:00 PM 84.2 °F 92.3 °F 75.2 °F 74% 29.80 in 6.2 mi East 10.4 mph - N/A   Scattered Clouds
7:00 PM 82.4 °F 88.2 °F 73.4 °F 74% 29.83 in 6.2 mi East 11.5 mph - N/A   Scattered Clouds
8:00 PM 81 °F - 73 °F 72% 29.85 in 22 mi East 9.2 mph - -   Scattered Clouds
8:00 PM 80.6 °F 85.4 °F 73.4 °F 79% 29.83 in 6.2 mi East 11.5 mph - N/A   Partly Cloudy
9:00 PM 80.6 °F 85.4 °F 73.4 °F 79% 29.86 in 6.2 mi East 11.5 mph - N/A   Partly Cloudy
10:00 PM 80.6 °F 85.4 °F 73.4 °F 79% 29.86 in 6.2 mi East 10.4 mph - N/A   Partly Cloudy
11:00 PM 81 °F - 74 °F 73% 29.88 in 19 mi ESE 8.1 mph - -   Scattered Clouds
11:00 PM 80.6 °F 85.4 °F 73.4 °F 79% 29.86 in 6.2 mi East 10.4 mph - N/A   Partly Cloudy